This is the latest recevied weather packets stored in our database for station/object OK1FET-16. If no packets are shown the sender has not sent any weather packets the latest 10 day(s).
| Time | Temp. | Humidity | Pressure | Rain* | Wind** | Luminosity | Snow |
|---|---|---|---|---|---|---|---|
| 1787905390 | 26.11° C | 57% | 1066.3 hPa | - | - | - | - |
| 1787905119 | 26.11° C | 58% | 1066.6 hPa | - | - | - | - |
| 1787904848 | 26.11° C | 58% | 1066.6 hPa | - | - | - | - |
| 1787904576 | 26.67° C | 58% | 1066.6 hPa | - | - | - | - |
| 1787904305 | 26.67° C | 58% | 1066.5 hPa | - | - | - | - |
| 1787904034 | 26.67° C | 58% | 1066.6 hPa | - | - | - | - |
| 1787903491 | 26.67° C | 59% | 1067.2 hPa | - | - | - | - |
| 1787903220 | 26.11° C | 59% | 1067.6 hPa | - | - | - | - |
| 1787902408 | 22.78° C | 65% | 1067.8 hPa | - | - | - | - |
| 1787901866 | 21.67° C | 65% | 1067.7 hPa | - | - | - | - |
| 1787901325 | 21.11° C | 66% | 1068 hPa | - | - | - | - |
| 1787901054 | 21.67° C | 65% | 1068.2 hPa | - | - | - | - |
| 1787900784 | 21.67° C | 65% | 1068.1 hPa | - | - | - | - |
| 1787900513 | 22.22° C | 65% | 1067.9 hPa | - | - | - | - |
| 1787900242 | 22.22° C | 65% | 1067.7 hPa | - | - | - | - |
| 1787899971 | 22.22° C | 65% | 1067.5 hPa | - | - | - | - |
| 1787899701 | 22.78° C | 65% | 1067.3 hPa | - | - | - | - |
| 1787899430 | 22.22° C | 65% | 1067.3 hPa | - | - | - | - |
| 1787899159 | 22.22° C | 65% | 1067.4 hPa | - | - | - | - |
| 1787898888 | 22.22° C | 65% | 1067.6 hPa | - | - | - | - |
| 1787898618 | 22.22° C | 65% | 1067.5 hPa | - | - | - | - |
| 1787898347 | 22.22° C | 66% | 1067.6 hPa | - | - | - | - |
| 1787898076 | 21.67° C | 68% | 1067.5 hPa | - | - | - | - |
| 1787897806 | 20.56° C | 70% | 1067.3 hPa | - | - | - | - |
| 1787897535 | 20° C | 71% | 1067.4 hPa | - | - | - | - |
* Rain since midnight (hover to see other rain measurements)
** Current wind speed in m/s (hover to see current wind gust speed)